[[{"header":{"parameterUnit":"m.s-1","parameterCategory":2,"la1":30.2991,"la2":30.254,"lo1":-89.0895,"lo2":-89.0444,"dy":0.0017,"dx":0.0017,"nx":28,"ny":28,"refTime":"2024-08-14T09:00:00:Z","depth":"0","parameterNumber":2,"parameterNumberName":"U-component_of_CURRENTS"},"data":[0,0,0,0,0,0,0,0,0,0,0,0,0,0,0,0,0,0,0,0,0,0,0,0,0,0,0,0,0,0,0,0,0,0,0,0,0,0,0,0,0,0,0,0,0,0,0,0,0,0,0,0,0,0,0,0,0,0,-0.2537,-0.2537,0,-0.2458,-0.2457,-0.2456,-0.2412,-0.2412,-0.2413,-0.2413,-0.2216,-0.2211,-0.2206,0,0,0,0,0,0,0,0,0,0,0,0,0,-0.25,-0.2502,-0.2537,-0.2537,-0.2536,-0.2458,-0.2457,-0.2456,-0.2412,-0.2412,-0.2413,-0.2413,-0.2218,-0.2212,-0.2205,0,0,0,0,0,0,0,0,0,0,0,0,0,-0.2476,-0.2502,-0.2538,-0.2507,-0.2504,-0.2459,-0.2457,-0.2455,-0.2412,-0.2412,-0.2413,-0.2413,-0.222,-0.2212,-0.2204,-0.2151,0,0,-0.218,-0.2176,0,0,0,0,0,0,0,0,-0.2478,-0.2477,-0.2512,-0.2509,-0.2505,-0.2448,-0.2372,-0.2348,-0.2412,-0.2444,-0.2413,-0.2413,-0.2284,-0.2271,-0.2253,-0.2141,-0.2133,-0.2179,-0.2174,-0.2171,-0.2169,0,0,0,0,0,0,0,-0.2479,-0.2479,-0.2503,-0.2512,-0.2507,-0.2446,-0.2444,-0.2367,-0.236,-0.2441,-0.2439,-0.2434,-0.2281,-0.2262,-0.2248,-0.213,-0.2179,-0.2172,-0.2167,-0.2164,-0.2072,-0.2075,0,0,0,0,0,0,-0.2503,-0.2482,-0.2506,-0.2501,-0.2495,-0.2447,-0.2444,-0.2464,-0.2363,-0.235,-0.2434,-0.2433,-0.2275,-0.2258,-0.2241,-0.2297,-0.2171,-0.2163,-0.2159,-0.207,-0.2073,-0.2075,0,0,0,0,0,0,-0.2503,-0.2507,-0.2509,-0.249,-0.2486,-0.2449,-0.247,-0.2462,-0.2448,-0.2359,-0.2343,-0.2429,-0.2275,-0.2252,-0.2208,-0.2284,-0.216,-0.2152,-0.2067,-0.2071,-0.2074,-0.2327,0,0,0,0,0,0,-0.2503,-0.2508,-0.2524,-0.2493,-0.2489,-0.2511,-0.247,-0.2461,-0.2446,-0.2443,-0.2349,-0.2331,-0.2273,-0.2221,-0.2201,-0.2271,-0.2146,-0.2064,-0.2069,-0.2073,-0.2316,-0.2339,-0.2359,0,0,0,0,0,-0.2502,-0.252,-0.2526,-0.2528,-0.2515,-0.2513,-0.2506,-0.2475,-0.2446,-0.2458,-0.2402,-0.2335,-0.2236,-0.2216,-0.2191,-0.2261,-0.2062,-0.2067,-0.2073,-0.2306,-0.2334,-0.2358,0,0,0,0,0,0,-0.2487,-0.2516,-0.2522,-0.2543,-0.2546,-0.2508,-0.2495,-0.2481,-0.2443,-0.2425,-0.2345,-0.2325,-0.2324,-0.2242,-0.2223,-0.2247,-0.2144,-0.2145,-0.2331,-0.2356,-0.2377,-0.2363,-0.2139,0,0,0,0,0,-0.2501,-0.2536,-0.2544,-0.2558,-0.2559,-0.2529,-0.2518,-0.2507,-0.247,-0.2454,-0.2401,-0.2342,-0.2324,-0.23,-0.225,-0.2241,-0.2138,-0.2273,-0.2295,-0.2314,-0.2286,-0.2267,-0.2285,-0.2093,-0.2093,-0.2093,0,0,-0.2495,-0.2514,-0.2531,-0.2559,-0.2542,-0.2563,-0.2522,-0.2513,-0.2544,-0.2433,-0.2438,-0.2403,-0.2335,-0.2356,-0.2348,-0.2298,-0.2306,-0.2321,-0.2338,-0.2298,-0.2275,-0.2294,-0.231,-0.2097,-0.2096,-0.2095,0,0,-0.2484,-0.2521,-0.2538,-0.2551,-0.2554,-0.2571,-0.2579,-0.2563,-0.2572,-0.2568,-0.2533,-0.2549,-0.2463,-0.2486,-0.2472,-0.2568,-0.2421,-0.255,-0.2649,-0.2635,-0.2651,-0.2663,-0.2523,-0.2521,-0.2565,-0.2565,-0.2566,0,-0.2468,-0.2515,-0.2537,-0.2546,-0.2573,-0.2585,-0.2613,-0.2629,-0.2611,-0.263,-0.2591,-0.2566,-0.2537,-0.2601,-0.266,-0.2624,-0.2527,-0.257,-0.2666,-0.2676,-0.2685,-0.2537,-0.2532,-0.2578,-0.2577,-0.2575,-0.2574,0,-0.2468,-0.251,-0.2513,-0.257,-0.2603,-0.2629,-0.2676,-0.2711,-0.2725,-0.2739,-0.2783,-0.2758,-0.2739,-0.2778,-0.2744,-0.2823,-0.2701,-0.2701,-0.2609,-0.272,-0.2556,-0.2546,-0.2596,-0.2592,-0.2588,-0.2585,0,0,-0.2423,-0.2508,-0.2507,-0.2558,-0.263,-0.2661,-0.2739,-0.2829,-0.2861,-0.2884,-0.2902,-0.2979,-0.2954,-0.2936,-0.2931,-0.2947,-0.2955,-0.2855,-0.2848,-0.2724,-0.2812,-0.273,-0.2708,-0.2975,-0.2975,-0.2976,-0.266,0,-0.2422,-0.2479,-0.2533,-0.2619,-0.2666,-0.2738,-0.2812,-0.2886,-0.2926,-0.2941,-0.2981,-0.2981,-0.3021,-0.3003,-0.3048,-0.2941,-0.2943,-0.3032,-0.2708,-0.2696,-0.2623,-0.2702,-0.2572,-0.2282,-0.2649,-0.2647,-0.2645,0,-0.2395,-0.2465,-0.2538,-0.268,-0.2704,-0.2761,-0.2894,-0.2954,-0.3008,-0.3013,-0.3049,-0.3021,-0.3048,-0.305,-0.2972,-0.3011,-0.2935,-0.2871,-0.2857,-0.2678,-0.2599,-0.2234,-0.2248,-0.2241,-0.2628,-0.2629,-0.263,0,-0.2361,-0.2471,-0.2557,-0.2593,-0.2736,-0.2793,-0.2881,-0.2967,-0.2998,-0.303,-0.2983,-0.3033,-0.2951,-0.2938,-0.2841,-0.288,-0.2684,-0.2715,-0.257,-0.2555,-0.2325,-0.2292,-0.2301,-0.2684,-0.2685,-0.2686,-0.2687,0,-0.2357,-0.2415,-0.2542,-0.2584,-0.2679,-0.2779,-0.2851,-0.2928,-0.296,-0.2934,-0.2998,-0.2925,-0.292,-0.2816,-0.2782,-0.2607,-0.264,-0.2561,-0.2497,-0.2404,-0.2384,-0.2267,-0.2315,-0.2674,-0.2677,-0.2679,-0.2681,0,-0.2281,-0.2369,-0.2456,-0.2612,-0.2652,-0.2706,-0.2809,-0.2831,-0.2881,-0.2814,-0.2801,-0.2773,-0.263,-0.2605,-0.2483,-0.2462,-0.2305,-0.2309,-0.2141,-0.2069,-0.195,-0.2015,-0.1883,-0.1834,-0.2053,-0.205,-0.2047,0,-0.2247,-0.2282,-0.2423,-0.2447,-0.2511,-0.2598,-0.2629,-0.2759,-0.2748,-0.27,-0.262,-0.2501,-0.237,-0.2161,-0.2113,-0.1991,-0.2104,-0.1836,-0.1963,-0.1916,-0.1941,-0.2012,-0.1988,-0.1702,-0.1697,-0.1692,-0.1689,0,-0.2167,-0.22,-0.226,-0.2321,-0.2368,-0.2419,-0.2469,-0.2451,-0.252,-0.2451,-0.2296,-0.2193,-0.1999,-0.1817,-0.1726,-0.1679,-0.1801,-0.174,-0.1758,-0.1727,-0.1732,-0.166,-0.186,-0.1649,-0.1653,-0.1656,-0.1658,-0.1659,-0.2047,-0.2055,-0.2109,-0.2154,-0.2204,-0.2195,-0.2153,-0.2166,-0.2108,-0.1949,-0.1969,-0.1764,-0.1658,-0.1495,-0.1438,-0.1336,-0.1469,-0.1333,-0.141,-0.1482,-0.1493,-0.1569,-0.1289,-0.1291,-0.1292,-0.1294,-0.1295,0,-0.187,-0.19,-0.1935,-0.1972,-0.1952,-0.2037,-0.1992,-0.1882,-0.1714,-0.1652,-0.1507,-0.1361,-0.1214,-0.1181,-0.1094,-0.1041,-0.1057,-0.1054,-0.1136,-0.1126,-0.12,-0.125,-0.0873,-0.0873,-0.0873,-0.0873,-0.0873,-0.0873,-0.1765,-0.1735,-0.1772,-0.1702,-0.1712,-0.1594,-0.1516,-0.1362,-0.1273,-0.105,-0.0965,-0.0898,-0.0963,-0.1082,-0.1008,-0.0951,-0.0991,-0.0938,-0.1029,-0.1109,-0.1143,-0.1175,-0.1236,-0.0862,-0.0862,-0.0874,-0.0874,-0.0875]},{"header":{"parameterUnit":"m.s-1","parameterCategory":2,"la1":30.2991,"la2":30.254,"lo1":-89.0895,"lo2":-89.0444,"dy":0.0017,"dx":0.0017,"nx":28,"ny":28,"refTime":"2024-08-14T09:00:00:Z","depth":"0","parameterNumber":3,"parameterNumberName":"V-component_of_CURRENTS"},"data":[0,0,0,0,0,0,0,0,0,0,0,0,0,0,0,0,0,0,0,0,0,0,0,0,0,0,0,0,0,0,0,0,0,0,0,0,0,0,0,0,0,0,0,0,0,0,0,0,0,0,0,0,0,0,0,0,0,0,0.0681,0.0683,0,0.0904,0.0906,0.0909,0.0998,0.0998,0.0997,0.0997,0.1111,0.1115,0.1118,0,0,0,0,0,0,0,0,0,0,0,0,0,0.0349,0.0355,0.068,0.0684,0.0686,0.0904,0.0906,0.0909,0.0998,0.0998,0.0997,0.0997,0.111,0.1114,0.1118,0,0,0,0,0,0,0,0,0,0,0,0,0,0.0523,0.0356,0.068,0.0758,0.0768,0.0903,0.0907,0.091,0.0998,0.0998,0.0997,0.0997,0.1109,0.1114,0.1119,0.1162,0,0,0.1134,0.1137,0,0,0,0,0,0,0,0,0.0513,0.0535,0.0744,0.0753,0.0764,0.0924,0.0832,0.0989,0.0998,0.0909,0.0997,0.0996,0.104,0.1051,0.1093,0.1167,0.1172,0.1135,0.1138,0.114,0.1142,0,0,0,0,0,0,0,0.0501,0.0526,0.0767,0.0747,0.076,0.0789,0.0812,0.0863,0.0971,0.0916,0.0924,0.0952,0.1045,0.1088,0.1096,0.1174,0.1135,0.1139,0.1142,0.1144,0.12,0.1199,0,0,0,0,0,0,0.0478,0.0515,0.076,0.0774,0.0637,0.0795,0.0822,0.0872,0.0974,0.099,0.0952,0.0955,0.108,0.109,0.11,0.107,0.114,0.1145,0.1148,0.1202,0.12,0.1198,0,0,0,0,0,0,0.047,0.0499,0.0751,0.0649,0.0683,0.0802,0.0857,0.0877,0.0915,0.1002,0.1016,0.097,0.108,0.1093,0.1125,0.1078,0.1147,0.1152,0.1204,0.1201,0.1199,0.1064,0,0,0,0,0,0,0.046,0.0495,0.0508,0.0649,0.0689,0.0804,0.0859,0.0881,0.0935,0.0941,0.1022,0.1033,0.108,0.1116,0.113,0.1086,0.1156,0.1206,0.1203,0.12,0.107,0.1057,0.1046,0,0,0,0,0,0.0448,0.0488,0.0508,0.0537,0.0709,0.0804,0.0825,0.0906,0.0936,0.094,0.0995,0.103,0.1106,0.112,0.1136,0.1092,0.1207,0.1203,0.12,0.1076,0.106,0.1046,0,0,0,0,0,0,0.0347,0.0506,0.053,0.0612,0.068,0.0819,0.085,0.0899,0.0953,0.0956,0.1029,0.1043,0.1047,0.1095,0.1108,0.1098,0.1155,0.1155,0.1055,0.1041,0.1029,0.0983,0.116,0,0,0,0,0,0.033,0.0404,0.0524,0.058,0.0619,0.0726,0.0772,0.0821,0.0898,0.0924,0.0975,0.1021,0.1049,0.1064,0.1102,0.1111,0.1138,0.1087,0.1075,0.1064,0.1036,0.1079,0.1068,0.1187,0.1187,0.1187,0,0,0.0297,0.04,0.0433,0.0561,0.0633,0.0647,0.0752,0.0819,0.08,0.0925,0.0916,0.0986,0.1044,0.1043,0.1047,0.1074,0.1035,0.106,0.105,0.1027,0.1074,0.1063,0.1052,0.1184,0.1185,0.1185,0,0,0.0275,0.0367,0.0409,0.0451,0.0551,0.0604,0.0612,0.0724,0.0745,0.0761,0.0831,0.0876,0.0923,0.0956,0.0977,0.0924,0.0972,0.0929,0.0829,0.0871,0.0861,0.0853,0.0827,0.0818,0.092,0.0919,0.0919,0,0.0218,0.0286,0.0422,0.0446,0.0449,0.0566,0.0541,0.0585,0.0675,0.0688,0.0724,0.0819,0.0872,0.0878,0.0847,0.0893,0.0907,0.088,0.0854,0.0847,0.0841,0.0817,0.0809,0.0913,0.0913,0.0914,0.0915,0,0.0214,0.0231,0.0259,0.031,0.0328,0.0338,0.0393,0.041,0.045,0.0503,0.0535,0.0634,0.0693,0.0709,0.0755,0.0738,0.0754,0.0837,0.0888,0.0821,0.08,0.0793,0.0903,0.0905,0.0907,0.0909,0,0,0.0158,0.0235,0.023,0.0195,0.0243,0.0257,0.0222,0.0239,0.0232,0.0312,0.0314,0.0376,0.0479,0.0508,0.0597,0.0623,0.0582,0.0691,0.0697,0.0656,0.0618,0.069,0.0691,0.067,0.067,0.0669,0.0603,0,0.0086,0.0074,0.0128,0.0036,0.0009,0.006,0.0015,0.0042,0.0093,0.013,0.025,0.0301,0.0386,0.0436,0.0469,0.0574,0.0567,0.0588,0.0696,0.0697,0.0765,0.0688,0.0753,0.0707,0.0597,0.0597,0.0596,0,0.0042,0.0029,-0.0052,-0.0114,-0.0119,-0.0159,-0.0197,-0.0214,-0.013,-0.0076,0.0018,0.014,0.0201,0.0303,0.0392,0.0404,0.0471,0.0544,0.0546,0.0657,0.076,0.0767,0.0701,0.0861,0.0587,0.0588,0.0589,0,-0.0065,-0.0113,-0.0192,-0.0216,-0.0248,-0.0286,-0.0304,-0.0265,-0.0268,-0.0174,-0.013,-0.002,0.0056,0.0159,0.0324,0.035,0.0427,0.0498,0.0605,0.0609,0.0705,0.072,0.0805,0.0529,0.0529,0.053,0.053,0,-0.0161,-0.0234,-0.0244,-0.0289,-0.0404,-0.0388,-0.046,-0.0439,-0.0387,-0.0377,-0.0222,-0.0168,0.0029,0.0133,0.0259,0.0408,0.0378,0.0549,0.0601,0.0656,0.0667,0.0849,0.0921,0.0527,0.0528,0.0528,0.0529,0,-0.0254,-0.0256,-0.036,-0.0421,-0.0442,-0.0521,-0.0552,-0.0577,-0.0517,-0.0494,-0.0458,-0.0297,-0.0151,0.0036,0.0207,0.0329,0.0572,0.0531,0.0549,0.0607,0.0863,0.0924,0.1007,0.1104,0.0601,0.0603,0.0604,0,-0.0297,-0.0345,-0.0447,-0.0504,-0.053,-0.0617,-0.0655,-0.0639,-0.0642,-0.0562,-0.0543,-0.0392,-0.0247,0.0022,0.0272,0.0481,0.0627,0.0647,0.0723,0.0854,0.096,0.0986,0.1064,0.0762,0.0765,0.0767,0.0768,0,-0.039,-0.041,-0.0482,-0.0591,-0.0661,-0.075,-0.079,-0.0812,-0.0774,-0.073,-0.0628,-0.0504,-0.0206,0.011,0.0404,0.0543,0.0784,0.0695,0.0848,0.109,0.1105,0.1234,0.0778,0.0786,0.0784,0.0783,0.0782,0.0781,-0.0446,-0.0515,-0.0574,-0.0685,-0.0768,-0.0843,-0.0883,-0.0898,-0.0898,-0.0781,-0.0672,-0.0367,0.0025,0.0479,0.0623,0.0983,0.0931,0.1109,0.1158,0.1159,0.1308,0.0857,0.0941,0.094,0.0939,0.0939,0.0938,0,-0.0507,-0.0554,-0.0652,-0.0769,-0.0852,-0.0876,-0.0935,-0.0934,-0.0917,-0.0718,-0.0561,0.0087,0.0453,0.0837,0.1259,0.1443,0.1479,0.1541,0.16,0.1651,0.1271,0.1341,0.1497,0.1497,0.1497,0.1497,0.1496,0.1496,-0.0537,-0.0619,-0.0663,-0.0801,-0.0865,-0.0929,-0.0951,-0.0938,-0.0788,-0.0405,0.0069,0.0455,0.0993,0.1464,0.1833,0.1871,0.2041,0.2014,0.2093,0.1858,0.1821,0.1787,0.1872,0.2136,0.2137,0.2476,0.248,0.2482]}],[{"header":{"parameterUnit":"m.s-1","parameterCategory":2,"la1":30.2991,"la2":30.254,"lo1":-89.0895,"lo2":-89.0444,"dy":0.0017,"dx":0.0017,"nx":28,"ny":28,"refTime":"2024-08-14T09:00:00:Z","depth":"2","parameterNumber":2,"parameterNumberName":"U-component_of_CURRENTS"},"data":[0,0,0,0,0,0,0,0,0,0,0,0,0,0,0,0,0,0,0,0,0,0,0,0,0,0,0,0,0,0,0,0,0,0,0,0,0,0,0,0,0,0,0,0,0,0,0,0,0,0,0,0,0,0,0,0,0,0,-0.2095,-0.2097,0,-0.2253,-0.2255,-0.2257,-0.235,-0.2351,-0.2351,-0.2352,-0.2555,-0.256,-0.2565,0,0,0,0,0,0,0,0,0,0,0,0,0,-0.1864,-0.1868,-0.2095,-0.2097,-0.2099,-0.2253,-0.2255,-0.2257,-0.235,-0.2351,-0.2351,-0.2352,-0.2554,-0.256,-0.2565,0,0,0,0,0,0,0,0,0,0,0,0,0,-0.1985,-0.1869,-0.2094,-0.2165,-0.2174,-0.2253,-0.2255,-0.2258,-0.235,-0.2351,-0.2351,-0.2352,-0.2552,-0.2559,-0.2566,-0.2594,0,0,-0.2589,-0.2592,0,0,0,0,0,0,0,0,-0.1978,-0.1994,-0.2153,-0.2161,-0.217,-0.2285,-0.2249,-0.2373,-0.2349,-0.2281,-0.2352,-0.2353,-0.247,-0.2484,-0.2508,-0.2603,-0.2612,-0.2589,-0.2594,-0.2597,-0.2599,0,0,0,0,0,0,0,-0.197,-0.1987,-0.2155,-0.2155,-0.2166,-0.2187,-0.2205,-0.2272,-0.2367,-0.2287,-0.2294,-0.2315,-0.2475,-0.2501,-0.2514,-0.2615,-0.2589,-0.2595,-0.26,-0.2603,-0.2835,-0.2837,0,0,0,0,0,0,-0.1955,-0.198,-0.215,-0.216,-0.2077,-0.219,-0.2211,-0.2245,-0.2366,-0.2386,-0.2314,-0.2319,-0.2488,-0.2505,-0.2521,-0.2678,-0.2597,-0.2604,-0.2608,-0.2833,-0.2836,-0.2837,0,0,0,0,0,0,-0.1949,-0.1969,-0.2144,-0.2074,-0.2098,-0.2194,-0.2232,-0.2248,-0.2323,-0.2387,-0.2407,-0.2379,-0.2489,-0.2511,-0.2655,-0.2682,-0.2607,-0.2614,-0.2831,-0.2834,-0.2837,-0.2916,0,0,0,0,0,0,-0.1942,-0.1966,-0.2009,-0.2074,-0.2102,-0.2232,-0.2232,-0.225,-0.2333,-0.2342,-0.2448,-0.2465,-0.2492,-0.2644,-0.2662,-0.269,-0.2619,-0.2829,-0.2833,-0.2836,-0.2911,-0.2921,-0.2929,0,0,0,0,0,-0.1934,-0.2009,-0.201,-0.2032,-0.215,-0.2235,-0.2253,-0.2319,-0.2335,-0.2387,-0.2475,-0.2464,-0.2675,-0.2654,-0.2674,-0.2705,-0.2827,-0.2832,-0.2835,-0.2907,-0.2919,-0.2929,0,0,0,0,0,0,-0.1951,-0.2027,-0.203,-0.2128,-0.2184,-0.2252,-0.231,-0.2346,-0.2453,-0.2472,-0.2525,-0.2551,-0.2671,-0.2685,-0.266,-0.2776,-0.2733,-0.2742,-0.278,-0.2792,-0.2801,-0.2744,-0.2625,0,0,0,0,0,-0.1963,-0.2045,-0.2089,-0.218,-0.2191,-0.2249,-0.2299,-0.2342,-0.243,-0.2478,-0.257,-0.2639,-0.2692,-0.2747,-0.2806,-0.29,-0.2823,-0.2918,-0.2928,-0.2935,-0.2901,-0.2806,-0.2802,-0.2851,-0.2851,-0.2851,0,0,-0.2002,-0.2055,-0.2105,-0.219,-0.2225,-0.2275,-0.2284,-0.2372,-0.2446,-0.2483,-0.2649,-0.2694,-0.2727,-0.2826,-0.2876,-0.2853,-0.2891,-0.294,-0.2947,-0.2907,-0.281,-0.2804,-0.2799,-0.2853,-0.2853,-0.2852,0,0,-0.211,-0.2145,-0.2227,-0.2262,-0.2328,-0.2345,-0.2376,-0.2468,-0.2535,-0.2681,-0.2701,-0.2776,-0.2912,-0.2923,-0.2938,-0.3034,-0.2943,-0.3047,-0.3056,-0.2967,-0.296,-0.2954,-0.2879,-0.2865,-0.3051,-0.3051,-0.3051,0,-0.2147,-0.2238,-0.2268,-0.2331,-0.235,-0.2375,-0.2423,-0.25,-0.2655,-0.2688,-0.275,-0.2872,-0.2941,-0.2964,-0.301,-0.3051,-0.2977,-0.3017,-0.2974,-0.2965,-0.2957,-0.2881,-0.2864,-0.3055,-0.3055,-0.3054,-0.3054,0,-0.2248,-0.2347,-0.2391,-0.2455,-0.2487,-0.2541,-0.2586,-0.2703,-0.2773,-0.2791,-0.2882,-0.2968,-0.3005,-0.305,-0.3079,-0.3047,-0.3008,-0.2995,-0.2936,-0.2955,-0.2877,-0.2857,-0.3061,-0.306,-0.3058,-0.3057,0,0,-0.2269,-0.2427,-0.2447,-0.2462,-0.2536,-0.2544,-0.2697,-0.2747,-0.2768,-0.2917,-0.2921,-0.3054,-0.3023,-0.3036,-0.3058,-0.3018,-0.2952,-0.299,-0.2984,-0.2898,-0.2741,-0.2672,-0.2644,-0.2913,-0.291,-0.2907,-0.2719,0,-0.2324,-0.2456,-0.2512,-0.2589,-0.262,-0.2677,-0.2767,-0.2824,-0.2875,-0.2904,-0.2936,-0.294,-0.3027,-0.3027,-0.3004,-0.2951,-0.2899,-0.3003,-0.2748,-0.274,-0.266,-0.2618,-0.2457,-0.2269,-0.27,-0.2696,-0.2694,0,-0.2373,-0.2447,-0.2556,-0.2609,-0.2606,-0.2649,-0.2687,-0.2766,-0.281,-0.2859,-0.2866,-0.2841,-0.2837,-0.2887,-0.2792,-0.2845,-0.2794,-0.2758,-0.2749,-0.2627,-0.2633,-0.2314,-0.2217,-0.2661,-0.2664,-0.2666,-0.2668,0,-0.2304,-0.2447,-0.2518,-0.2539,-0.2627,-0.2676,-0.2686,-0.2744,-0.275,-0.278,-0.2749,-0.2728,-0.2701,-0.2645,-0.2642,-0.2683,-0.2489,-0.2527,-0.2409,-0.2405,-0.2184,-0.2165,-0.2404,-0.2404,-0.2404,-0.2405,-0.2405,0,-0.2313,-0.236,-0.2494,-0.2506,-0.2528,-0.2581,-0.2562,-0.2649,-0.2641,-0.2571,-0.2653,-0.2608,-0.2631,-0.2548,-0.2546,-0.2414,-0.2408,-0.2369,-0.233,-0.2216,-0.2202,-0.2477,-0.2488,-0.2398,-0.2399,-0.2401,-0.2402,0,-0.2261,-0.2388,-0.2422,-0.249,-0.2523,-0.2504,-0.2485,-0.2444,-0.25,-0.243,-0.2427,-0.2455,-0.2385,-0.2376,-0.2277,-0.2267,-0.217,-0.2124,-0.2007,-0.1959,-0.2168,-0.2186,-0.1936,-0.1932,-0.1928,-0.1925,-0.1922,0,-0.2269,-0.2316,-0.2359,-0.2378,-0.2416,-0.2412,-0.2411,-0.2424,-0.2356,-0.2341,-0.2267,-0.2212,-0.2157,-0.2006,-0.1963,-0.1867,-0.2011,-0.1692,-0.1753,-0.2121,-0.2109,-0.2134,-0.2156,-0.1504,-0.1498,-0.1494,-0.149,0,-0.2225,-0.2241,-0.2236,-0.2285,-0.229,-0.2219,-0.2183,-0.2126,-0.2126,-0.2092,-0.2013,-0.1962,-0.1844,-0.1686,-0.16,-0.1555,-0.1703,-0.159,-0.1923,-0.1675,-0.1704,-0.1698,-0.1735,-0.1447,-0.1451,-0.1454,-0.1457,-0.1458,-0.2152,-0.2129,-0.2145,-0.2145,-0.2135,-0.2008,-0.1895,-0.1861,-0.1765,-0.1683,-0.1734,-0.1629,-0.16,-0.1366,-0.1279,-0.1233,-0.1368,-0.1347,-0.1365,-0.1387,-0.1397,-0.142,-0.1112,-0.1114,-0.1116,-0.1118,-0.1119,0,-0.2035,-0.2027,-0.2017,-0.1939,-0.1778,-0.185,-0.1728,-0.1599,-0.1479,-0.146,-0.1397,-0.1216,-0.1084,-0.1069,-0.0902,-0.0877,-0.0902,-0.087,-0.0908,-0.0948,-0.0985,-0.098,-0.0581,-0.058,-0.0579,-0.0578,0,0,-0.1984,-0.1899,-0.1864,-0.1602,-0.1544,-0.1329,-0.1231,-0.1154,-0.1099,-0.102,-0.0969,-0.1023,-0.1009,-0.0795,-0.074,-0.0625,-0.0787,-0.0593,-0.1018,-0.11,-0.1136,-0.1245,-0.1281,0,0,0,0,0]},{"header":{"parameterUnit":"m.s-1","parameterCategory":2,"la1":30.2991,"la2":30.254,"lo1":-89.0895,"lo2":-89.0444,"dy":0.0017,"dx":0.0017,"nx":28,"ny":28,"refTime":"2024-08-14T09:00:00:Z","depth":"2","parameterNumber":3,"parameterNumberName":"V-component_of_CURRENTS"},"data":[0,0,0,0,0,0,0,0,0,0,0,0,0,0,0,0,0,0,0,0,0,0,0,0,0,0,0,0,0,0,0,0,0,0,0,0,0,0,0,0,0,0,0,0,0,0,0,0,0,0,0,0,0,0,0,0,0,0,-0.0507,-0.0506,0,-0.0392,-0.0391,-0.0389,-0.0305,-0.0305,-0.0304,-0.0304,0.0022,0.003,0.0038,0,0,0,0,0,0,0,0,0,0,0,0,0,-0.0452,-0.0454,-0.0507,-0.0506,-0.0505,-0.0392,-0.0391,-0.0389,-0.0305,-0.0305,-0.0304,-0.0303,0.0019,0.0029,0.0039,0,0,0,0,0,0,0,0,0,0,0,0,0,-0.0418,-0.0455,-0.0507,-0.0451,-0.0445,-0.0393,-0.0391,-0.0388,-0.0305,-0.0305,-0.0304,-0.0303,0.0016,0.0028,0.004,0.0101,0,0,0.0078,0.0083,0,0,0,0,0,0,0,0,-0.0421,-0.042,-0.0461,-0.0455,-0.0448,-0.0364,-0.0252,-0.0215,-0.0306,-0.0356,-0.0304,-0.0303,-0.009,-0.0069,-0.0048,0.0117,0.0131,0.0079,0.0086,0.0091,0.0095,0,0,0,0,0,0,0,-0.0423,-0.0424,-0.0459,-0.046,-0.0452,-0.0363,-0.0359,-0.0244,-0.0222,-0.0351,-0.0346,-0.0337,-0.0085,-0.0061,-0.004,0.0135,0.0078,0.0089,0.0097,0.0102,0.0472,0.0474,0,0,0,0,0,0,-0.0455,-0.0428,-0.0463,-0.0456,-0.0435,-0.0366,-0.0361,-0.039,-0.0228,-0.0205,-0.0338,-0.0334,-0.0082,-0.0054,-0.0028,0.0148,0.0091,0.0103,0.011,0.047,0.0473,0.0475,0,0,0,0,0,0,-0.0455,-0.0461,-0.0467,-0.0438,-0.0433,-0.0369,-0.0401,-0.0388,-0.0347,-0.0221,-0.0193,-0.0309,-0.008,-0.0045,0.0121,0.0158,0.0108,0.012,0.0467,0.0471,0.0474,0.0441,0,0,0,0,0,0,-0.0454,-0.0462,-0.0486,-0.0442,-0.0436,-0.0434,-0.0402,-0.0387,-0.0346,-0.0338,-0.0186,-0.0157,-0.0077,0.0102,0.0133,0.0174,0.0129,0.0464,0.0468,0.0473,0.0439,0.0443,0.0447,0,0,0,0,0,-0.0453,-0.0485,-0.0489,-0.0492,-0.0475,-0.0434,-0.0422,-0.0369,-0.0345,-0.0329,-0.0197,-0.0161,0.0152,0.0115,0.015,0.0196,0.0461,0.0467,0.0472,0.0437,0.0442,0.0447,0,0,0,0,0,0,-0.0469,-0.0479,-0.0481,-0.0516,-0.048,-0.0421,-0.0402,-0.0366,-0.0257,-0.0237,-0.0111,-0.0071,0.0078,0.0149,0.0105,0.0316,0.0306,0.0318,0.0267,0.0273,0.0276,0.0219,0.0139,0,0,0,0,0,-0.0492,-0.052,-0.05,-0.0523,-0.0512,-0.0457,-0.0431,-0.0398,-0.0304,-0.0259,-0.0131,0.0002,0.0124,0.0207,0.032,0.0452,0.0444,0.05,0.0504,0.0506,0.0485,0.0514,0.0516,0.0493,0.0493,0.0493,0,0,-0.0511,-0.0511,-0.0532,-0.0527,-0.0497,-0.0484,-0.0438,-0.0404,-0.0361,-0.0234,-0.0099,0.0023,0.0161,0.0303,0.0375,0.0374,0.0507,0.0513,0.0514,0.0492,0.0519,0.0521,0.0522,0.0497,0.0496,0.0496,0,0,-0.0531,-0.0559,-0.0577,-0.0553,-0.0517,-0.0492,-0.0484,-0.0404,-0.0338,-0.0204,-0.0102,0.0052,0.0245,0.0357,0.0433,0.053,0.0519,0.0562,0.055,0.0579,0.0579,0.0579,0.0545,0.0542,0.0572,0.0572,0.0572,0,-0.0547,-0.0579,-0.0567,-0.0557,-0.0547,-0.0502,-0.05,-0.0431,-0.0289,-0.0227,-0.0164,0.0127,0.0267,0.0418,0.0468,0.0538,0.0515,0.0518,0.0577,0.0578,0.0578,0.0543,0.054,0.0571,0.0571,0.0571,0.0571,0,-0.0575,-0.0587,-0.0587,-0.0585,-0.0568,-0.0558,-0.0491,-0.0408,-0.032,-0.0257,-0.0072,0.0134,0.0294,0.0378,0.0469,0.056,0.0525,0.0564,0.0547,0.0577,0.054,0.0537,0.057,0.057,0.057,0.0571,0,0,-0.0643,-0.062,-0.0616,-0.0623,-0.0587,-0.0584,-0.0497,-0.0431,-0.0382,-0.0208,-0.0126,0.0143,0.0225,0.0318,0.0457,0.0523,0.0543,0.0545,0.0547,0.0476,0.0536,0.059,0.0592,0.0573,0.0574,0.0574,0.0495,0,-0.0666,-0.0674,-0.0649,-0.066,-0.0672,-0.0599,-0.0537,-0.0463,-0.0359,-0.0258,-0.0069,0.006,0.0202,0.03,0.0386,0.0503,0.0539,0.0557,0.0547,0.0546,0.0564,0.0595,0.0597,0.0535,0.0493,0.0493,0.0492,0,-0.0701,-0.0705,-0.0725,-0.0709,-0.0708,-0.0701,-0.0627,-0.0565,-0.0428,-0.0331,-0.0188,-0.007,0.0095,0.0203,0.0365,0.0354,0.0435,0.0515,0.0514,0.0571,0.0599,0.0509,0.0532,0.0489,0.0489,0.0489,0.0489,0,-0.0775,-0.0761,-0.079,-0.0786,-0.0755,-0.0724,-0.0703,-0.0591,-0.0533,-0.0398,-0.0344,-0.0174,-0.0056,0.0057,0.0282,0.0293,0.041,0.0441,0.0549,0.0549,0.0556,0.0559,0.0516,0.0516,0.0516,0.0516,0.0517,0,-0.0826,-0.0847,-0.0826,-0.0845,-0.086,-0.0816,-0.0798,-0.0712,-0.0619,-0.0572,-0.041,-0.0301,-0.0084,0.0042,0.0192,0.0368,0.0336,0.0532,0.0548,0.0546,0.055,0.0525,0.0527,0.0513,0.0514,0.0515,0.0515,0,-0.0899,-0.0886,-0.0924,-0.0907,-0.0898,-0.0918,-0.0877,-0.0846,-0.0751,-0.0675,-0.0637,-0.0429,-0.0248,-0.0051,0.0151,0.0276,0.0425,0.0496,0.0459,0.0476,0.0538,0.054,0.054,0.0541,0.0543,0.0544,0.0545,0,-0.0943,-0.0964,-0.0983,-0.0997,-0.0991,-0.0997,-0.0976,-0.0905,-0.0862,-0.0717,-0.0679,-0.0497,-0.0305,-0.0031,0.0215,0.0411,0.0459,0.0522,0.0591,0.0532,0.0547,0.0547,0.0547,0.0554,0.0555,0.0555,0.0556,0,-0.1015,-0.1018,-0.1048,-0.1072,-0.1081,-0.1081,-0.105,-0.1036,-0.0926,-0.0846,-0.0685,-0.0544,-0.0243,0.0035,0.0304,0.0433,0.0487,0.0545,0.0493,0.0577,0.0548,0.0562,0.0561,0.0563,0.0562,0.0562,0.0561,0.0561,-0.1062,-0.1101,-0.112,-0.115,-0.1154,-0.1131,-0.1118,-0.1061,-0.0994,-0.0823,-0.0686,-0.0437,-0.0191,0.023,0.0407,0.0566,0.0569,0.0626,0.0621,0.0617,0.0663,0.0642,0.0676,0.0676,0.0676,0.0676,0.0676,0,-0.1107,-0.1136,-0.1176,-0.12,-0.1195,-0.1181,-0.1131,-0.1081,-0.0986,-0.0792,-0.0602,-0.0287,0.0022,0.0253,0.0517,0.0667,0.0649,0.0688,0.0644,0.0638,0.0632,0.0677,0.0695,0.0695,0.0695,0.0696,0,0,-0.1134,-0.1184,-0.1211,-0.1221,-0.1214,-0.1182,-0.1147,-0.106,-0.0915,-0.0707,-0.0501,-0.0213,0.0063,0.0258,0.0449,0.0577,0.056,0.0584,0.0559,0.048,0.0472,0.0595,0.0659,0,0,0,0,0]}],[{"header":{"parameterUnit":"m.s-1","parameterCategory":2,"la1":30.2991,"la2":30.254,"lo1":-89.0895,"lo2":-89.0444,"dy":0.0017,"dx":0.0017,"nx":28,"ny":28,"refTime":"2024-08-14T09:00:00:Z","depth":"4","parameterNumber":2,"parameterNumberName":"U-component_of_CURRENTS"},"data":[0,0,0,0,0,0,0,0,0,0,0,0,0,0,0,0,0,0,0,0,0,0,0,0,0,0,0,0,0,0,0,0,0,0,0,0,0,0,0,0,0,0,0,0,0,0,0,0,0,0,0,0,0,0,0,0,0,0,-0.1174,-0.1175,0,-0.1241,-0.1242,-0.1242,-0.1265,-0.1265,-0.1266,-0.1266,-0.134,-0.1342,-0.1344,0,0,0,0,0,0,0,0,0,0,0,0,0,-0.1123,-0.1123,-0.1174,-0.1175,-0.1177,-0.1241,-0.1242,-0.1242,-0.1265,-0.1265,-0.1266,-0.1266,-0.134,-0.1342,-0.1344,0,0,0,0,0,0,0,0,0,0,0,0,0,-0.1159,-0.1123,-0.1174,-0.1198,-0.1201,-0.1241,-0.1242,-0.1242,-0.1265,-0.1265,-0.1266,-0.1266,-0.1339,-0.1342,-0.1345,-0.1361,0,0,-0.1353,-0.1355,0,0,0,0,0,0,0,0,-0.1157,-0.1161,-0.1194,-0.1197,-0.12,-0.1248,-0.1251,-0.1284,-0.1265,-0.1238,-0.1266,-0.1266,-0.1312,-0.1317,-0.1325,-0.1364,-0.1368,-0.1354,-0.1355,-0.1357,-0.1358,0,0,0,0,0,0,0,-0.1155,-0.1159,-0.1197,-0.1195,-0.1199,-0.1225,-0.123,-0.1257,-0.1271,-0.124,-0.1243,-0.1255,-0.1314,-0.1322,-0.1327,-0.1369,-0.1354,-0.1356,-0.1358,-0.1359,-0.1471,-0.1472,0,0,0,0,0,0,-0.115,-0.1156,-0.1195,-0.12,-0.1182,-0.1226,-0.1231,-0.123,-0.1271,-0.1278,-0.1255,-0.1256,-0.1317,-0.1323,-0.133,-0.1405,-0.1357,-0.1359,-0.1361,-0.1469,-0.1471,-0.1472,0,0,0,0,0,0,-0.1148,-0.1152,-0.1193,-0.1183,-0.119,-0.1227,-0.1226,-0.1231,-0.1259,-0.1283,-0.129,-0.128,-0.1317,-0.1326,-0.1371,-0.1406,-0.1361,-0.1363,-0.1468,-0.147,-0.1471,-0.1521,0,0,0,0,0,0,-0.1146,-0.1151,-0.1151,-0.1182,-0.1191,-0.1222,-0.1226,-0.1233,-0.1268,-0.127,-0.1307,-0.1312,-0.1318,-0.1366,-0.1374,-0.1409,-0.1366,-0.1466,-0.1469,-0.1471,-0.1518,-0.1525,-0.153,0,0,0,0,0,-0.1144,-0.1141,-0.115,-0.1156,-0.1188,-0.1223,-0.123,-0.1255,-0.1269,-0.1281,-0.1311,-0.1312,-0.1386,-0.137,-0.1378,-0.1415,-0.1465,-0.1468,-0.1471,-0.1516,-0.1524,-0.153,0,0,0,0,0,0,-0.112,-0.1144,-0.1155,-0.116,-0.1194,-0.1229,-0.1246,-0.1268,-0.1301,-0.131,-0.133,-0.1338,-0.1395,-0.1394,-0.1376,-0.1453,-0.1425,-0.143,-0.1457,-0.1464,-0.147,-0.1442,-0.1368,0,0,0,0,0,-0.1115,-0.1115,-0.1153,-0.1158,-0.1179,-0.1219,-0.1239,-0.126,-0.1294,-0.1309,-0.1341,-0.1372,-0.1409,-0.1428,-0.1457,-0.1497,-0.1494,-0.1525,-0.1531,-0.1536,-0.1518,-0.1553,-0.156,-0.1481,-0.1481,-0.1481,0,0,-0.1106,-0.1121,-0.1121,-0.1153,-0.1183,-0.122,-0.1231,-0.1269,-0.1306,-0.1313,-0.1374,-0.1402,-0.1427,-0.1475,-0.15,-0.1481,-0.156,-0.154,-0.1544,-0.1522,-0.1556,-0.1564,-0.1571,-0.1483,-0.1483,-0.1482,0,0,-0.1094,-0.1107,-0.1111,-0.1148,-0.1199,-0.1226,-0.1244,-0.1297,-0.1328,-0.1388,-0.1406,-0.1435,-0.1509,-0.1512,-0.1529,-0.1581,-0.1598,-0.1616,-0.162,-0.1655,-0.1662,-0.1667,-0.1686,-0.1693,-0.1612,-0.1612,-0.1612,0,-0.1087,-0.1097,-0.112,-0.1152,-0.1188,-0.1234,-0.127,-0.131,-0.1372,-0.1396,-0.1415,-0.1501,-0.1515,-0.1556,-0.1576,-0.1592,-0.1623,-0.1593,-0.1663,-0.1668,-0.1673,-0.1691,-0.1697,-0.1615,-0.1615,-0.1614,-0.1614,0,-0.1084,-0.1111,-0.1126,-0.1175,-0.1214,-0.1254,-0.1318,-0.136,-0.1411,-0.1447,-0.1515,-0.1538,-0.1576,-0.16,-0.1609,-0.1656,-0.1672,-0.1674,-0.1643,-0.1684,-0.17,-0.1706,-0.1619,-0.1618,-0.1617,-0.1616,0,0,-0.1031,-0.1106,-0.1118,-0.1152,-0.1235,-0.1266,-0.1333,-0.1395,-0.1434,-0.1501,-0.1557,-0.1601,-0.1612,-0.1628,-0.1645,-0.1668,-0.1728,-0.1695,-0.1695,-0.1709,-0.1821,-0.1655,-0.1645,-0.1771,-0.1773,-0.1773,-0.1824,0,-0.1031,-0.1081,-0.1126,-0.1193,-0.1229,-0.13,-0.1356,-0.1418,-0.1478,-0.1546,-0.1579,-0.1641,-0.1629,-0.1662,-0.1682,-0.1735,-0.1746,-0.1714,-0.1781,-0.1782,-0.1625,-0.1646,-0.1777,-0.1828,-0.1829,-0.183,-0.1831,0,-0.1019,-0.1057,-0.1114,-0.1203,-0.1227,-0.1275,-0.1363,-0.1424,-0.1515,-0.1564,-0.1616,-0.1665,-0.1713,-0.1705,-0.1771,-0.1771,-0.1787,-0.1809,-0.1812,-0.1633,-0.1624,-0.1775,-0.1842,-0.1841,-0.184,-0.184,-0.1839,0,-0.0958,-0.1052,-0.1094,-0.1131,-0.1234,-0.1274,-0.1333,-0.1419,-0.1478,-0.1581,-0.1642,-0.1699,-0.176,-0.1794,-0.1819,-0.1831,-0.1891,-0.1907,-0.1756,-0.1746,-0.1862,-0.1855,-0.1925,-0.1925,-0.1925,-0.1925,-0.1925,0,-0.0931,-0.097,-0.1073,-0.1097,-0.115,-0.1245,-0.131,-0.137,-0.1482,-0.1554,-0.1647,-0.1704,-0.1796,-0.1843,-0.1849,-0.1805,-0.1907,-0.1741,-0.174,-0.1884,-0.1879,-0.1867,-0.1859,-0.1927,-0.1926,-0.1926,-0.1926,0,-0.0861,-0.0925,-0.0982,-0.109,-0.1119,-0.1164,-0.129,-0.134,-0.1459,-0.1564,-0.1611,-0.1744,-0.1791,-0.1828,-0.1884,-0.1825,-0.1806,-0.1755,-0.1893,-0.1902,-0.164,-0.1635,-0.1615,-0.161,-0.1605,-0.1601,-0.1597,0,-0.0823,-0.0839,-0.0956,-0.098,-0.103,-0.1112,-0.1161,-0.1296,-0.137,-0.1566,-0.1616,-0.1713,-0.1772,-0.1715,-0.1756,-0.1717,-0.1684,-0.1676,-0.1651,-0.1603,-0.1606,-0.1608,-0.1609,-0.159,-0.1589,-0.1587,-0.1586,0,-0.0741,-0.0795,-0.0851,-0.0895,-0.0948,-0.1027,-0.1125,-0.1174,-0.1356,-0.1476,-0.1566,-0.1588,-0.1625,-0.1627,-0.1583,-0.1562,-0.169,-0.1626,-0.1636,-0.1613,-0.1572,-0.158,-0.1587,-0.1569,-0.1572,-0.1573,-0.1574,0,-0.0684,-0.0702,-0.0765,-0.0805,-0.0863,-0.0929,-0.1003,-0.1105,-0.1194,-0.1424,-0.1439,-0.1531,-0.1623,-0.1545,-0.1518,-0.146,-0.1442,-0.141,-0.1432,-0.145,-0.1362,-0.1285,-0.1178,0,0,0,0,0,-0.0633,-0.0632,-0.0657,-0.0709,-0.0772,-0.0817,-0.0969,-0.1068,-0.125,-0.1268,-0.1354,-0.1372,-0.1353,-0.1393,-0.1292,-0.1419,-0.1433,-0.1296,-0.1404,-0.1477,-0.1497,-0.1402,0,0,0,0,0,0,-0.0588,-0.0606,-0.0626,-0.0618,-0.064,-0.0715,-0.082,-0.0957,-0.099,-0.1164,-0.115,-0.1258,-0.124,-0.1359,-0.1247,-0.1253,-0.1289,-0.1337,-0.1332,-0.1467,-0.1484,-0.1499,-0.1409,0,0,0,0,0]},{"header":{"parameterUnit":"m.s-1","parameterCategory":2,"la1":30.2991,"la2":30.254,"lo1":-89.0895,"lo2":-89.0444,"dy":0.0017,"dx":0.0017,"nx":28,"ny":28,"refTime":"2024-08-14T09:00:00:Z","depth":"4","parameterNumber":3,"parameterNumberName":"V-component_of_CURRENTS"},"data":[0,0,0,0,0,0,0,0,0,0,0,0,0,0,0,0,0,0,0,0,0,0,0,0,0,0,0,0,0,0,0,0,0,0,0,0,0,0,0,0,0,0,0,0,0,0,0,0,0,0,0,0,0,0,0,0,0,0,-0.045,-0.045,0,-0.0438,-0.0438,-0.0438,-0.0413,-0.0413,-0.0412,-0.0412,-0.0322,-0.032,-0.0318,0,0,0,0,0,0,0,0,0,0,0,0,0,-0.0344,-0.0347,-0.045,-0.045,-0.045,-0.0438,-0.0438,-0.0438,-0.0413,-0.0413,-0.0412,-0.0412,-0.0322,-0.032,-0.0317,0,0,0,0,0,0,0,0,0,0,0,0,0,-0.0366,-0.0348,-0.045,-0.0438,-0.0437,-0.0438,-0.0438,-0.0438,-0.0413,-0.0413,-0.0412,-0.0412,-0.0323,-0.032,-0.0317,-0.0308,0,0,-0.0307,-0.0306,0,0,0,0,0,0,0,0,-0.0365,-0.037,-0.044,-0.0439,-0.0437,-0.0428,-0.0368,-0.0391,-0.0413,-0.042,-0.0412,-0.0411,-0.0351,-0.0346,-0.0344,-0.0304,-0.03,-0.0307,-0.0305,-0.0304,-0.0303,0,0,0,0,0,0,0,-0.0364,-0.0369,-0.0444,-0.044,-0.0438,-0.0396,-0.0399,-0.0372,-0.0386,-0.042,-0.0418,-0.042,-0.035,-0.0347,-0.0341,-0.0299,-0.0307,-0.0305,-0.0303,-0.0301,-0.0271,-0.0272,0,0,0,0,0,0,-0.0375,-0.0369,-0.0444,-0.0444,-0.0401,-0.0399,-0.0402,-0.043,-0.0388,-0.0383,-0.042,-0.0419,-0.0352,-0.0345,-0.0338,-0.0343,-0.0304,-0.0301,-0.0299,-0.027,-0.0271,-0.0272,0,0,0,0,0,0,-0.0373,-0.0383,-0.0445,-0.0405,-0.041,-0.0402,-0.0433,-0.043,-0.043,-0.039,-0.0382,-0.0423,-0.0352,-0.0342,-0.0323,-0.0339,-0.03,-0.0297,-0.0269,-0.027,-0.0272,-0.0342,0,0,0,0,0,0,-0.0371,-0.0383,-0.0407,-0.0407,-0.0413,-0.0453,-0.0434,-0.0431,-0.0432,-0.043,-0.0389,-0.0381,-0.0351,-0.0328,-0.032,-0.0334,-0.0294,-0.0267,-0.0269,-0.0271,-0.0338,-0.0346,-0.0352,0,0,0,0,0,-0.0367,-0.0406,-0.0409,-0.0418,-0.0448,-0.0454,-0.0453,-0.0442,-0.0433,-0.0439,-0.0413,-0.0382,-0.0335,-0.0326,-0.0316,-0.033,-0.0266,-0.0269,-0.0271,-0.0335,-0.0344,-0.0352,0,0,0,0,0,0,-0.0371,-0.0408,-0.0411,-0.0459,-0.0459,-0.0451,-0.0458,-0.0449,-0.0435,-0.043,-0.039,-0.0379,-0.037,-0.0342,-0.0334,-0.0329,-0.0298,-0.0298,-0.035,-0.0358,-0.0365,-0.0363,-0.0292,0,0,0,0,0,-0.0386,-0.0428,-0.0438,-0.0475,-0.0477,-0.0468,-0.0469,-0.0462,-0.045,-0.0444,-0.0417,-0.0391,-0.0373,-0.0359,-0.0337,-0.033,-0.0258,-0.0335,-0.0342,-0.0348,-0.0341,-0.0239,-0.0235,-0.028,-0.028,-0.028,0,0,-0.0398,-0.0422,-0.0446,-0.0478,-0.0476,-0.0488,-0.0467,-0.0475,-0.0485,-0.0434,-0.0438,-0.0412,-0.0377,-0.0374,-0.0367,-0.0351,-0.03,-0.0351,-0.0356,-0.0346,-0.0241,-0.0236,-0.0231,-0.0282,-0.0282,-0.0281,0,0,-0.0429,-0.0463,-0.0498,-0.0505,-0.0513,-0.0507,-0.0512,-0.0509,-0.0508,-0.0507,-0.0478,-0.0462,-0.0434,-0.0415,-0.0401,-0.0432,-0.0341,-0.0429,-0.0458,-0.036,-0.0355,-0.0349,-0.0258,-0.0244,-0.0431,-0.0432,-0.0432,0,-0.0437,-0.0492,-0.0503,-0.0528,-0.0538,-0.052,-0.0541,-0.054,-0.053,-0.0523,-0.0517,-0.0472,-0.0455,-0.0435,-0.0459,-0.0446,-0.0368,-0.043,-0.0366,-0.0359,-0.0351,-0.026,-0.0243,-0.0435,-0.0435,-0.0434,-0.0434,0,-0.0483,-0.0526,-0.0543,-0.0577,-0.0584,-0.0602,-0.06,-0.0605,-0.0599,-0.0582,-0.0564,-0.0535,-0.0501,-0.0507,-0.0497,-0.0453,-0.0407,-0.0384,-0.034,-0.0351,-0.0254,-0.0235,-0.0441,-0.0439,-0.0438,-0.0437,0,0,-0.0507,-0.0566,-0.0574,-0.0597,-0.0615,-0.0625,-0.0645,-0.0646,-0.0643,-0.0627,-0.0602,-0.0602,-0.0564,-0.0547,-0.0522,-0.0459,-0.0366,-0.0409,-0.0402,-0.0311,-0.0133,-0.0175,-0.0157,-0.0315,-0.0312,-0.031,-0.0088,0,-0.0536,-0.06,-0.0619,-0.0665,-0.0692,-0.069,-0.0706,-0.0701,-0.0683,-0.065,-0.0609,-0.0574,-0.0584,-0.056,-0.0501,-0.0387,-0.0317,-0.0427,-0.0144,-0.0136,-0.0163,-0.0138,-0.0301,-0.0073,-0.0069,-0.0065,-0.0063,0,-0.0572,-0.0613,-0.0673,-0.0715,-0.0725,-0.0745,-0.0754,-0.0763,-0.0714,-0.0693,-0.0641,-0.0584,-0.0508,-0.0504,-0.031,-0.0369,-0.0266,-0.018,-0.0168,-0.0166,-0.0142,-0.0058,-0.0027,-0.003,-0.0033,-0.0035,-0.0037,0,-0.0583,-0.0647,-0.07,-0.0719,-0.076,-0.0782,-0.0792,-0.0774,-0.0767,-0.0698,-0.0655,-0.0554,-0.0477,-0.0337,-0.0208,-0.0226,0.003,0.0038,0.01,0.01,0.0104,0.0096,0.0189,0.0188,0.0188,0.0187,0.0187,0,-0.0611,-0.0651,-0.0714,-0.0746,-0.079,-0.0804,-0.0824,-0.082,-0.0775,-0.0738,-0.0669,-0.0594,-0.0425,-0.0276,-0.0161,0.0022,0.0076,0.011,0.0158,0.0066,0.0051,0.0118,0.0107,0.0195,0.0194,0.0192,0.0191,0,-0.0613,-0.0662,-0.0726,-0.0787,-0.0804,-0.0834,-0.0852,-0.085,-0.0812,-0.0749,-0.0717,-0.0573,-0.0378,-0.0225,0.0027,0.0085,0.0258,0.0303,0.0193,0.0229,0.0259,0.0242,0.0435,0.0435,0.0435,0.0436,0.0436,0,-0.0621,-0.0658,-0.0752,-0.0792,-0.0825,-0.0865,-0.0883,-0.0872,-0.0852,-0.0736,-0.0687,-0.0498,-0.0395,-0.0052,0.0081,0.0318,0.0317,0.0404,0.0319,0.0259,0.0288,0.0269,0.0251,0.0437,0.0437,0.0437,0.0437,0,-0.0626,-0.0669,-0.0725,-0.0808,-0.0855,-0.089,-0.0905,-0.0885,-0.0842,-0.0801,-0.0618,-0.0457,-0.0238,-0.0024,0.0142,0.0296,0.0349,0.0409,0.0409,0.033,0.0264,0.0288,0.027,0.0438,0.0438,0.0438,0.0438,0,-0.0626,-0.0665,-0.0747,-0.0814,-0.0873,-0.0894,-0.0905,-0.085,-0.0815,-0.0683,-0.0615,-0.0397,-0.026,-0.0033,0.0122,0.0262,0.0292,0.0314,0.032,0.032,0.018,0.0073,0.0249,0,0,0,0,0,-0.0621,-0.0664,-0.0737,-0.0818,-0.0876,-0.0905,-0.0907,-0.0902,-0.0847,-0.0713,-0.066,-0.046,-0.0194,-0.0071,0.0073,0.0095,0.0281,0.026,0.0301,0.0446,0.0444,0.0291,0,0,0,0,0,0,-0.062,-0.0686,-0.0732,-0.0803,-0.085,-0.0898,-0.0901,-0.0869,-0.0783,-0.0702,-0.0544,-0.0454,-0.0189,-0.0268,0.0071,0.0112,0.0148,0.039,0.0392,0.0447,0.0446,0.0444,0.0286,0,0,0,0,0]}]]